sat.trackr.live / text

‹ back to catalog

STARLINK-36714

NORAD 67924 · 2026-036W

PAYLOAD ACTIVE UNKNOWN

§ Identity

Operator
Country
US
Launch date
2026-02-22
Launch site
AFETR
Launch vehicle
Mass (kg)
RCS (m²)

Purposes: comms

External: N2YO · Heavens-Above · Gunter

§ Orbital elements

Epoch: 2026-09-19T06:05:18.444480Z

Period
94.27 min
Inclination
43.0011°
Eccentricity
0.0001277
Mean motion
15.27581770 rev/d
Perigee alt
482.2 km
Apogee alt
483.9 km
Semi-major
6,861.2 km
B*
3.6954e-4
RAAN
232.2522°
Arg perigee
273.3285°
Mean anomaly
86.7420°
Rev number
3,332

§ Raw data

STARLINK-367141 67924U 26036W   26262.25368570  .00009921  00000+0  36954-3 0  99992 67924  43.0011 232.2522 0001277 273.3285  86.7420 15.27581770 33325

JSON: /api/v1/satellites/67924 · /tle

For live sub-satellite position, see the globe view (requires WebGL).

§ Visibility from observer

Set your observer location to see the next 7 days of passes ≥ 10°. The values pass through the URL so the page stays shareable.

No JS? Fill the form by hand. The geolocation button needs JavaScript.